Regional Weather Roundup
Issued by NWS

Home | Current Version | Previous Version | Graphics & Text | Print | Product List | Glossary On
Versions: 1 2 3 4 5 6 7 8 9 10 11 12 13 14 15 16 17 18 19 20 21 22 23 24 25 26 27 28 29 30 31 32 33 34 35 36 37 38 39 40 41 42 43 44 45 46 47 48 49 50
546
ASUS44 KLIX 011001
RWRLA
LOUISIANA WEATHER ROUNDUP
NATIONAL WEATHER SERVICE NEW ORLEANS LA
500 AM CDT FRI AUG 01 2014

NOTE: "FAIR" INDICATES FEW OR NO CLOUDS BELOW 12,000 FEET WITH NO
      SIGNIFICANT WEATHER AND/OR OBSTRUCTIONS TO VISIBILITY.
      SKY/WX - SKY CONDITION AND SIGNIFICANT WEATHER.
      TMP - AIR TEMPERATURE.    DP   - DEWPOINT TEMPERATURE.
      RH  - RELATIVE HUMIDITY.  PRES - PRESSURE.
      HX  - HEAT INDEX.         WCI  - WIND CHILL INDEX.

*  THESE STATIONS ARE NOT NWS OR FAA STATIONS AND ARE NOT UNDER
   NWS QUALITY CONTROL.

LAZ040-048-061>063-065-066-069-011100-
SOUTHEAST LOUISIANA

CITY           SKY/WX    TMP DP  RH WIND       PRES   REMARKS
N.O. AUDUBON     N/A     80  70  72 MISG        N/A
N.O. INTL ARPT CLOUDY    77  70  79 SE5       29.97S
N.O. LAKEFRONT MOCLDY    80  69  69 SE6       29.98S
N.O. DOWNTOWN* CLOUDY    81  66  61 CALM      29.98R
SLIDELL        MOCLDY    72  68  87 CALM      29.98R
BATON ROUGE    MOCLDY    73  68  84 NE5       29.97S
BOOTHVILLE     MOCLDY    79  68  69 CALM      29.97S
BELLE CHASSE   MOCLDY    75  70  84 CALM      29.97R
BOGALUSA*      PTSUNNY   73  68  85 CALM      30.00S
GALLIANO*      NOT AVBL
NEW ROADS*     PTSUNNY   73  67  79 CALM      29.97R
GONZALES*      NOT AVBL
HAMMOND*       NOT AVBL
HOUMA*         CLOUDY    75  70  83 CALM      29.97R
PORT FOURCHON* SUNNY     81  66  61 CALM      29.98R

$$

LAZ041-044-053-054-011100-
SOUTHWEST LOUISIANA

CITY           SKY/WX    TMP DP  RH WIND       PRES   REMARKS
LAKE CHARLES   MOCLDY    78  70  76 SW5       29.93S
LAFAYETTE      MOCLDY    76  74  93 CALM      29.95F
PATTERSON      MOCLDY    75  73  94 SE6       30.00R
SALT POINT       N/A     84  74  71 CALM      29.95S
NEW IBERIA     MOCLDY    77  74  90 SE3       29.96S
CHENAULT AIRPK NOT AVBL

$$

LAZ027-028-011100-
CENTRAL LOUISIANA

CITY           SKY/WX    TMP DP  RH WIND       PRES   REMARKS
FORT POLK      CLOUDY    74  73  97 SE3       29.94R
ALEXANDRIA INT TSTM      72  70  93 SE13      29.92F FOG
ALEXANDRIA     RAIN      71  67  87 E5        29.95F

$$

LAZ001-002-011100-
NORTHWEST LOUISIANA

CITY           SKY/WX    TMP DP  RH WIND       PRES   REMARKS
SHREVEPORT     DRIZZLE   68  65  90 NE3       29.96S
BARKSDALE AFB  CLOUDY    67  66  97 NE5       29.97S
DTN SHREVEPORT CLOUDY    67  65  93 E5        29.97R FOG

$$

LAZ014-016-011100-
NORTHEAST LOUISIANA

CITY           SKY/WX    TMP DP  RH WIND       PRES   REMARKS
MONROE         RAIN      69  67  93 NE6       30.01R FOG
TALLULAH       LGT RAIN  72  67  84 E3        29.99R

$$




USA.gov is the U.S. government's official web portal to all federal, state and local government web resources and services.